Weather History for Nice, France

Change the Weather History Date:

Monday, November 12, 2012

  Actual Average Record
Temperature  
Mean Temperature 59 °F -  
Max Temperature 67 °F 58 °F 68 °F (2006)
Min Temperature 51 °F 45 °F 46 °F (1997)
Degree Days  
Heating Degree Days 6    
Growing Degree Days 9 (Base 50)    
Moisture  
Dew Point 46 °F    
Average Humidity 66    
Maximum Humidity 82    
Minimum Humidity 34    
Precipitation  
Precipitation 0.00 in 0.12 in - ()
Sea Level Pressure  
Sea Level Pressure 30.09 in    
Wind  
Wind Speed 9 mph ()    
Max Wind Speed 16 mph    
Max Gust Speed -    
Visibility 7.3 miles    
Events      
Averages and records for this station are not official NWS values.
T = Trace of Precipitation, MM = Missing Value Source: Averaged Metar Reports

Daily Weather History Graph

Daily Weather History Graph

Search for Another Location

Airport:

Trip Planner

Search our weather history database for the weather conditions in past years. The results will help you decide how hot, cold, wet, or windy it might be!

Date:

Astronomy

Nov. 12, 2012 Rise Set
Actual Time 7:21 AM CET 5:08 PM CET
Civil Twilight 6:50 AM CET 5:39 PM CET
Nautical Twilight 6:16 AM CET 6:13 PM CET
Astronomical Twilight 5:42 AM CET 6:47 PM CET
Moon 5:25 AM CET (11/12) 4:03 PM CET (11/12)
Length of Visible Light 10h 48m
Length of Day
9h 46m
Waning Crescent, 3% of the Moon is Illuminated
Nov 12
Waning Crescent
Nov 13
New
Nov 20
First Quarter
Nov 28
Full
Dec 6
Last Quarter

Hourly Weather History & Observations

Time (CET) Temp. Dew Point Humidity Pressure Visibility Wind Dir Wind Speed Gust Speed Precip Events Conditions
12:00 AM 53.6 °F 48.2 °F 82% 30.04 in 6.2 mi NNW 10.4 mph - N/A   Scattered Clouds
12:30 AM 53.6 °F 48.2 °F 82% 30.04 in 6.2 mi NNW 8.1 mph - N/A   Scattered Clouds
1:00 AM 53 °F 46 °F 71% 30.05 in 16 mi NNW 11.5 mph - -   Scattered Clouds
1:00 AM 53.6 °F 46.4 °F 77% 30.04 in 6.2 mi NNW 11.5 mph - N/A   Partly Cloudy
1:30 AM 51.8 °F 46.4 °F 82% 30.04 in 6.2 mi NNW 12.7 mph - N/A   Partly Cloudy
2:00 AM 51.8 °F 46.4 °F 82% 30.04 in 6.2 mi NNW 6.9 mph - N/A   Partly Cloudy
2:30 AM 51.8 °F 46.4 °F 82% 30.04 in 6.2 mi NNW 8.1 mph - N/A   Partly Cloudy
3:00 AM 51.8 °F 44.6 °F 76% 30.04 in - NNW 9.2 mph - N/A   Clear
3:30 AM 51.8 °F 44.6 °F 76% 30.04 in - NNW 11.5 mph - N/A   Clear
4:00 AM 51.8 °F 44.6 °F 76% 30.04 in - North 6.9 mph - N/A   Clear
4:30 AM 51.8 °F 44.6 °F 76% 30.04 in - NNW 10.4 mph - N/A   Clear
5:00 AM 51.8 °F 42.8 °F 71% 30.04 in - North 8.1 mph - N/A   Clear
5:30 AM 53.6 °F 42.8 °F 67% 30.04 in - NNW 10.4 mph - N/A   Clear
6:30 AM 53.6 °F 42.8 °F 67% 30.04 in - NNW 9.2 mph - N/A   Clear
7:00 AM 52 °F 42 °F 60% 30.06 in 31 mi NNW 11.5 mph - -   Clear
7:00 AM 51.8 °F 42.8 °F 71% 30.04 in - NNW 10.4 mph - N/A   Clear
7:30 AM 51.8 °F 42.8 °F 71% 30.04 in - NNW 16.1 mph - N/A   Clear
8:00 AM 51.8 °F 42.8 °F 71% 30.06 in - NNW 15.0 mph - N/A   Clear
8:30 AM 51.8 °F 42.8 °F 71% 30.06 in - NNW 12.7 mph - N/A   Clear
9:00 AM 55.4 °F 42.8 °F 63% 30.09 in - NNW 13.8 mph - N/A   Clear
9:30 AM 55.4 °F 42.8 °F 63% 30.09 in - NNW 11.5 mph - N/A   Clear
10:00 AM 57.2 °F 42.8 °F 59% 30.09 in - NNW 13.8 mph - N/A   Clear
10:30 AM 59.0 °F 42.8 °F 55% 30.09 in - NNW 15.0 mph - N/A   Clear
11:00 AM 60.8 °F 44.6 °F 55% 30.09 in 6.2 mi NW 16.1 mph - N/A   Scattered Clouds
11:30 AM 60.8 °F 42.8 °F 52% 30.09 in 6.2 mi NW 11.5 mph - N/A   Scattered Clouds
12:00 PM 62.6 °F 44.6 °F 52% 30.09 in - NW 11.5 mph - N/A   Clear
12:30 PM 66.2 °F 44.6 °F 46% 30.09 in - NNW 6.9 mph - N/A   Clear
1:00 PM 67 °F 45 °F 34% 30.09 in 31 mi NW 6.9 mph - -   Scattered Clouds
1:00 PM 66.2 °F 44.6 °F 46% 30.09 in 6.2 mi NW 6.9 mph - N/A   Partly Cloudy
1:30 PM 64.4 °F 51.8 °F 64% 30.09 in 6.2 mi Variable 3.5 mph - N/A   Partly Cloudy
2:00 PM 66.2 °F 50.0 °F 56% 30.09 in 6.2 mi SW 4.6 mph - N/A   Partly Cloudy
2:30 PM 66.2 °F 50.0 °F 56% 30.09 in 6.2 mi WSW 5.8 mph - N/A   Partly Cloudy
3:00 PM 66.2 °F 51.8 °F 60% 30.09 in 6.2 mi WSW 4.6 mph - N/A   Partly Cloudy
3:30 PM 66.2 °F 51.8 °F 60% 30.09 in 6.2 mi SW 3.5 mph - N/A   Partly Cloudy
4:00 PM 64.4 °F 51.8 °F 64% 30.09 in 6.2 mi SW 4.6 mph - N/A   Partly Cloudy
5:00 PM 60.8 °F 48.2 °F 63% 30.09 in 6.2 mi WSW 4.6 mph - N/A   Partly Cloudy
5:30 PM 59.0 °F 48.2 °F 67% 30.09 in - WSW 3.5 mph - N/A   Clear
6:00 PM 57.2 °F 48.2 °F 72% 30.09 in - NNW 5.8 mph - N/A   Clear
6:30 PM 57.2 °F 48.2 °F 72% 30.12 in - NNW 8.1 mph - N/A   Clear
7:00 PM 57 °F 47 °F 60% 30.14 in 16 mi NNW 6.9 mph - -  
7:00 PM 57.2 °F 46.4 °F 67% 30.12 in - NNW 6.9 mph - N/A   Clear
7:30 PM 57.2 °F 46.4 °F 67% 30.12 in - NNW 9.2 mph - N/A   Clear
8:00 PM 55.4 °F 46.4 °F 72% 30.15 in - NNW 9.2 mph - N/A   Clear
8:30 PM 55.4 °F 46.4 °F 72% 30.15 in - NNW 11.5 mph - N/A   Clear
9:00 PM 55.4 °F 46.4 °F 72% 30.15 in - NNW 10.4 mph - N/A   Clear
9:24 PM 55.4 °F 44.6 °F 67% 30.15 in - NNW 9.2 mph - N/A   Clear
9:54 PM 55.4 °F 44.6 °F 67% 30.18 in - NNW 9.2 mph - N/A   Clear
10:21 PM 55.4 °F 44.6 °F 67% 30.18 in - NNW 8.1 mph - N/A   Clear
10:52 PM 55.4 °F 44.6 °F 67% 30.18 in - NNW 11.5 mph - N/A   Clear
11:30 PM 55.4 °F 44.6 °F 67% 30.18 in - NNW 11.5 mph - N/A   Clear
11:51 PM 53.6 °F 44.6 °F 72% 30.18 in - North 8.1 mph - N/A   Clear